User: anonymous   Login
Location: Saint Peter Port
(49.4500°N, 2.5330°W)
Time: 07:38:11
(UTC+01:00)
Language:

Cosmos 2242 Rocket - Orbit

View from above orbital plane
View from above orbital plane
View from above satellite
View from above satellite

Ground track
Ground track

The orbit data is extracted from the following two-line orbital elements,

1 22627U 93024B   15213.90783890  .00000221  00000-0  27378-4 0  9999
2 22627 082.5220 016.4250 0024830 053.4955 106.5851 14.77926583200927
Epoch (UTC): 01 August 2015 21:47:17
Eccentricity: 0.0024830
inclination: 82.5220°
perigee height: 618 km
apogee height: 653 km
right ascension of ascending node: 16.4250°
argument of perigee: 53.4955°
revolutions per day: 14.77926583
mean anomaly at epoch: 106.5851°
orbit number at epoch: 20092

The dashed part of the orbit path shows where the satellite is in the earth's shadow,  

DLR